Airfield :
LOGIN :

Register | Disclaimer

   EN    FR    IT 

 










Legend :    VFR   Marginal VFR   IFR   Intensive IFR   Very Intensive IFR
Visi :
Ceiling :
>= 8 km
>= 3000ft
5 to 8 km
1000 to 3000 ft
1500m to 5 km
500 to 1000 ft
800 to 1500m
200 to 500 ft
< 800m
< 200 ft
Symbols :   Thunderstorms  Fog  Heavy snow  Heavy precipitations  Wind > 20 kt
SIGMETs :     Misc.  Thunderstorms  Icing  Turbulence  Mountain Waves  Volcanic Ashes







- Airport Elevation : 24 ft
- IATA code : FAO


LPFR - Faro

CURRENT METAR :
  • 100100Z 34004KT 270V020 CAVOK 10/08 Q1026

EXPIRED METARs :
  • 100030Z VRB04KT CAVOK 10/08 Q1026
  • 100000Z 00000KT CAVOK 11/09 Q1027
  • 092330Z 00000KT CAVOK 11/09 Q1027
  • 092300Z 00000KT CAVOK 12/10 Q1027
  • 092230Z 00000KT CAVOK 12/10 Q1027

TAF TAF LPFR
Valid from the 10 at 00:00 until the 11 at 00:00 UTC


092300Z 1000/1024 VRB03KT CAVOK
BECMG 1000/1003 06008KT
BECMG 1012/1014 09010KT
BECMG 1020/1023 13010KT 9999 BKN015
No reported NOTAMs for that airfield.



MET'MAP, your aeronautical weather chart ! - Copyright ORBIFLY December 2007 - Disclaimer

ORBIFLY MET'MAP TEAM :

Programming & Development : Alexandra Zaïnal
Concept & Development : Baudouin d'Aumeries
Co-Development & Prog : Marc-Olivier Méhu
Technical & hardware support : Manuel Goepfert

Contact : metmap@orbifly.com




SOURCES & CREDITS :

   NOAA